Location: Ehl
(48.3713°N, 7.6165°E)
Time: 08:04:28
(UTC+00:00)

Daily predictions for brighter satellites

Satellite Brightness Start Highest point End
(mag) Time Altitude Azimuth Time Altitude Azimuth Time Altitude Azimuth
CZ-4C R/B 3.8 18:17:22 10° W 18:22:18 35° NNW 18:28:08 10° NE
STARLINK-1083 3.6 18:20:00 10° WNW 18:24:04 77° NNE 18:28:06 10° ESE
STARLINK-1237 4.4 18:20:55 10° SSW 18:24:30 32° SE 18:28:07 10° ENE
STARLINK-1098 4.4 18:20:33 10° WNW 18:24:34 45° N 18:28:34 10° E
Cosmos 1709 Rocket 4.4 18:19:07 10° N 18:24:59 41° ENE 18:30:44 10° SE
STARLINK-1214 3.4 18:22:01 10° SW 18:25:00 42° SE 18:28:00 10° ENE
STARLINK-1245 3.3 18:22:30 10° SW 18:25:28 42° SE 18:28:27 10° ENE
STARLINK-1238 3.3 18:22:55 10° SW 18:25:54 42° SE 18:28:55 10° ENE
Cosmos 1331 Rocket 4.1 18:21:13 10° NNW 18:26:22 62° ENE 18:31:28 10° SE
STARLINK-1205 3.3 18:23:51 10° SW 18:26:50 43° SE 18:29:49 10° ENE
STARLINK-1204 3.3 18:24:16 10° SW 18:27:15 43° SE 18:30:15 10° ENE
Cosmos 1674 2.6 18:23:59 10° N 18:27:46 85° E 18:31:30 10° S
STARLINK-1125 3.6 18:24:37 10° WNW 18:28:41 81° NNE 18:32:44 10° ESE
Cosmos 2219 Rocket 3.4 18:23:15 10° SW 18:28:42 48° NW 18:34:11 10° NNE
STARLINK-1202 4.3 18:25:26 10° SSW 18:29:05 34° SE 18:32:45 10° ENE
Orbus 7S? 3.9 18:26:08 10° WNW 18:29:11 36° SW 18:31:28 10° SSE
SL-14 R/B 4.0 18:25:46 10° N 18:29:31 34° ENE 18:33:13 10° SE
STARLINK-1123 4.3 18:25:35 10° WNW 18:29:36 46° N 18:33:36 10° E
KORONAS-FOTON 3.8 18:27:03 10° N 18:30:55 85° E 18:34:42 10° S
COSMO-SKYMED 1 4.5 18:27:49 10° N 18:31:49 36° WNW 18:35:48 10° SW
STARLINK-1109 3.6 18:28:54 10° WNW 18:32:58 84° NNE 18:37:02 10° ESE
STARLINK-1246 4.2 18:30:18 10° SSW 18:34:03 37° SE 18:37:49 10° ENE
STARLINK-1097 4.3 18:30:33 10° WNW 18:34:35 47° N 18:38:36 10° E
Cosmos 1943 Rocket 3.2 18:31:49 10° NNW 18:36:34 28° NE 18:41:19 10° ESE
MONITOR-E 4.5 18:35:05 10° SE 18:37:32 34° ENE 18:40:00 10° N
STARLINK-1091 3.6 18:33:34 10° WNW 18:37:38 89° NNE 18:41:39 10° ESE
Cosmos 1980 3.8 18:32:28 10° SSW 18:38:10 90° WNW 18:43:53 10° NNE
Cosmos 1766 3.2 18:34:32 10° S 18:38:29 73° E 18:42:29 10° NNE
STARLINK-1099 4.3 18:35:33 10° WNW 18:39:35 48° N 18:43:37 10° E
S3M 4.0 18:34:03 10° S 18:40:24 77° E 18:46:50 10° NNE
Ariane Rocket 3.0 18:37:05 10° SSE 18:42:10 78° ENE 18:47:16 10° NNW
YAOGAN 1 4.4 18:38:31 10° SSW 18:42:28 35° W 18:46:29 10° NNW
Cosmos 2084 4.2 18:38:03 10° WSW 18:42:29 59° NW 18:46:56 10° NE
STARLINK-1224 4.0 18:39:09 10° SW 18:42:58 42° SE 18:46:48 10° ENE
BREEZE-M DEB (TANK) 4.5 18:29:13 10° WNW 18:43:12 49° SW 18:46:50 10° SSE
Cosmos 1386 Rocket 4.4 18:37:07 10° N 18:43:14 85° E 18:49:14 10° S
SL-08 ROCKET BODY 4.4 18:37:14 10° N 18:43:26 84° E 18:49:29 10° S
STARLINK-1104 4.2 18:40:33 10° WNW 18:44:36 49° NNE 18:48:25 11° E
Cosmos 1455 Rocket 3.0 18:41:12 10° S 18:45:27 60° E 18:49:47 10° NNE
Cosmos 1110 Rocket 4.1 18:41:58 10° NNW 18:47:15 83° WSW 18:52:28 10° SSE
STARLINK-1225 3.9 18:43:47 10° SW 18:47:39 46° SE 18:51:31 10° ENE
STARLINK-1203 3.7 18:45:45 10° SW 18:49:34 50° SE 18:53:24 10° ENE
STARLINK-1144 4.2 18:45:31 10° WNW 18:49:35 51° NNE 18:53:11 13° E
STARLINK-1072 3.6 18:46:47 10° WNW 18:50:47 78° SSW 18:54:14 14° SE
Cosmos 1892 Rocket 3.9 18:46:26 10° NNW 18:50:54 74° W 18:55:22 10° S
SL-16 R/B 2.5 18:46:21 10° S 18:51:41 44° ESE 18:57:02 10° NE
STARLINK-1230 3.8 18:48:22 10° SW 18:52:16 49° SE 18:56:10 10° ENE
Cosmos 2333 Rocket 4.1 18:47:09 10° WSW 18:52:17 34° NW 18:57:26 10° NNE
Cosmos 1626 Rocket 4.0 18:48:17 10° N 18:52:30 42° ENE 18:56:39 10° SSE
STARLINK-1103 4.1 18:50:30 10° WNW 18:54:34 52° NNE 18:57:58 14° E
USA 186 1.8 18:51:10 10° SSE 18:54:35 74° ENE 18:57:59 10° N
STARLINK-1096 3.6 18:51:14 10° WNW 18:55:14 74° SSW 18:58:31 15° SE
Cosmos 1626 2.1 18:51:48 10° N 18:55:29 60° ENE 18:59:07 10° SSE
STARLINK-1234 2.7 18:52:31 10° WSW 18:55:31 88° NNW 18:58:25 11° ENE
Cosmos 1953 3.8 18:53:53 14° ESE 18:55:35 18° E 18:58:18 10° NE
ARGOS Delta rocket 4.1 18:50:33 10° SSE 18:55:40 86° W 19:01:04 10° NNW
STARLINK-1243 3.7 18:53:01 10° SW 18:56:57 53° SE 19:00:53 10° ENE
NOSS 2-1 (E) 4.2 18:54:58 10° WSW 18:58:15 45° NW 19:02:00 10° NNE
Okean 1-7 Rocket 3.9 18:54:26 10° NNW 18:58:50 71° W 19:03:11 10° S
STARLINK-1101 4.1 18:55:30 10° WNW 18:59:35 54° NNE 19:02:46 16° E
STARLINK-1079 3.7 18:55:43 10° WNW 18:59:42 69° SSW 19:02:49 16° SE
Cosmos 1602 Rocket 4.1 18:55:49 10° N 19:00:03 40° ENE 19:03:54 12° SE
STARLINK-1236 3.6 18:57:38 10° SW 19:01:35 57° SSE 19:05:23 11° ENE
ATLAS 2AS CENTAUR R/B 4.1 18:57:13 10° NW 19:04:07 32° NNE 19:10:15 11° E
STARLINK-1116 3.7 19:00:12 10° WNW 19:04:11 65° SSW 19:07:08 17° SE
STARLINK-1102 4.0 19:00:29 10° WNW 19:04:35 56° NNE 19:07:32 18° E
H-2A R/B 2.2 19:01:10 10° SSE 19:06:30 81° WSW 19:11:43 10° NNW
Aureole 2 Rocket 3.9 19:06:39 10° N 19:09:27 22° ENE 19:10:31 19° E
STARLINK-1111 3.9 19:05:28 10° WNW 19:09:34 58° NNE 19:12:19 20° E
Cosmos 883 Rocket 4.4 19:04:26 10° S 19:10:37 79° E 19:16:55 10° N
STARLINK-1269 3.5 19:06:59 10° SW 19:10:59 65° SSE 19:14:25 14° ENE
Cosmos 1544 Rocket 3.5 19:08:30 10° S 19:12:53 86° E 19:17:21 10° N
ERBS 3.8 19:09:52 10° W 19:13:00 35° NNW 19:16:09 10° NE
STARLINK-1094 3.9 19:09:11 10° WNW 19:13:08 57° SSW 19:15:46 20° SE
STARLINK-1073 3.9 19:10:27 10° WNW 19:14:34 60° NNE 19:17:06 22° E
USA 234 3.3 19:08:28 10° ENE 19:14:54 57° SE 19:21:18 10° SW
Cosmos 2297 3.8 19:09:21 10° NNW 19:15:03 81° WSW 19:20:45 10° SSE
CZ-2C R/B 3.9 19:10:47 10° NNE 19:15:27 52° E 19:20:02 10° S
STARLINK-1200 3.5 19:11:39 10° SW 19:15:40 69° SSE 19:18:56 15° ENE
STARLINK-1117 4.0 19:13:43 10° WNW 19:17:38 53° SW 19:20:07 21° SE
STARLINK-1121 3.8 19:15:26 10° WNW 19:19:33 63° NNE 19:21:53 24° E
STARLINK-1192 3.4 19:16:17 10° SW 19:20:19 74° SSE 19:23:24 17° ENE
Cosmos 2237 Rocket 3.2 19:16:33 10° SW 19:21:59 49° NW 19:27:28 10° NNE
STARLINK-1078 4.1 19:18:13 10° WNW 19:22:07 50° SW 19:24:26 22° SSE
STARLINK-1106 3.8 19:20:24 10° WNW 19:24:32 66° NNE 19:26:39 27° E
Cosmos 1302 Rocket 4.1 19:19:31 10° NNW 19:24:49 82° WSW 19:29:43 12° SSE
STARLINK-1244 3.4 19:21:03 10° WSW 19:25:06 78° SSE 19:28:01 18° ENE
STARLINK-1201 3.1 19:22:13 10° WSW 19:25:29 72° NNW 19:27:31 21° ENE
STARLINK-1108 4.2 19:22:46 10° WNW 19:26:39 46° SW 19:28:47 23° SSE
CZ-2C R/B 2.9 19:22:32 10° NNE 19:27:27 42° E 19:32:20 10° SSE
Cosmos 1992 Rocket 4.4 19:22:54 10° NNW 19:27:57 46° ENE 19:30:33 26° ESE
Cosmos 2184 Rocket 4.3 19:22:05 10° N 19:28:13 48° ENE 19:32:14 21° SE
Cosmos 1758 Rocket 4.1 19:24:38 10° N 19:28:44 37° ENE 19:30:09 29° ESE
Cosmos 1269 Rocket 4.2 19:23:51 10° SSW 19:29:08 78° WNW 19:34:29 10° NNE
STARLINK-1112 3.7 19:25:24 10° WNW 19:29:32 69° NNE 19:31:27 30° E
STARLINK-1138 3.4 19:25:44 10° WSW 19:29:47 83° SSE 19:32:32 20° ENE
STARLINK-1209 3.4 19:28:00 10° W 19:30:51 51° NNW 19:32:14 25° NE
STARLINK-1071 4.3 19:27:18 10° WNW 19:31:08 43° SW 19:33:08 24° SSE
STARLINK-1228 3.4 19:29:00 10° W 19:31:48 50° NNW 19:33:08 26° NE
STARLINK-1124 4.4 19:28:12 10° WNW 19:32:09 43° SW 19:34:14 24° SSE
STARLINK-1128 3.7 19:30:24 10° WNW 19:34:32 72° NNE 19:36:15 34° E
STARLINK-1143 3.5 19:30:31 10° WSW 19:34:34 87° SSE 19:37:08 22° ENE
ARGOS 3.8 19:29:21 10° S 19:34:40 57° W 19:40:00 10° NNW
SL-8 R/B 3.6 19:30:49 10° W 19:35:37 89° N 19:38:02 29° E
STARLINK-1110 4.4 19:31:50 10° WNW 19:35:38 40° SW 19:37:29 25° SSE
Cosmos 2251 Rocket 4.0 19:31:07 10° S 19:36:01 39° ESE 19:40:59 10° NE
SL-24 R/B 4.0 19:32:39 10° NNE 19:37:24 76° ESE 19:41:30 10° S
STARLINK-1113 3.6 19:35:22 10° WNW 19:39:31 76° NNE 19:41:02 38° ESE
Cosmos 1470 2.9 19:37:54 10° SSW 19:41:46 72° WNW 19:45:40 10° N
Cosmos 1606 Rocket 4.4 19:43:16 30° E 19:43:16 30° E 19:46:55 10° NNE
STARLINK-1119 3.6 19:40:20 10° WNW 19:44:30 79° NNE 19:45:48 43° ESE
STARLINK-1241 3.5 19:40:59 10° WSW 19:45:00 83° NNW 19:47:06 27° ENE
STARLINK-1233 3.5 19:42:11 10° W 19:45:16 54° NNW 19:46:21 34° NE
STARLINK-1212 3.5 19:42:39 10° W 19:45:44 53° NNW 19:46:46 34° NE
SL-08 RB Rocket 4.4 19:41:24 10° S 19:45:49 54° W 19:50:20 10° NNW
Cosmos 2315 Rocket 4.3 19:39:44 10° SSW 19:46:02 73° W 19:52:26 10° N
STARLINK-1105 3.5 19:43:05 10° W 19:46:11 53° NNW 19:47:13 34° NE
STARLINK-1206 3.5 19:43:35 10° W 19:46:39 53° NNW 19:47:38 35° NE
SJ-6B 4.2 19:43:10 10° SSW 19:47:00 39° W 19:50:54 10° NNW
STARLINK-1247 3.5 19:44:02 10° W 19:47:06 52° NNW 19:48:03 36° NE
MetOp-A 4.3 19:42:29 12° S 19:47:23 76° WSW 19:52:46 10° NNW
STARLINK-1227 3.5 19:44:27 10° W 19:47:31 52° NNW 19:48:30 35° NE
Resurs 1-3 3.6 19:44:43 20° S 19:47:41 80° WSW 19:52:06 10° NNW
ISS -3.7 19:44:20 10° WNW 19:47:42 68° NNE 19:48:11 57° ENE
STARLINK-1218 3.5 19:44:56 10° W 19:48:00 52° NNW 19:48:55 36° NE
STARLINK-1226 3.6 19:45:24 10° W 19:48:29 52° NNW 19:49:23 36° NE
STARLINK-1254 3.6 19:45:48 10° W 19:48:53 52° NNW 19:49:48 36° NE
Cosmos 2154 Rocket 4.4 19:43:00 10° N 19:49:06 45° ENE 19:51:33 31° ESE
STARLINK-1215 3.6 19:46:18 10° W 19:49:22 51° NNW 19:50:14 37° NNE
STARLINK-1114 3.5 19:45:20 10° WNW 19:49:30 84° NNE 19:50:36 48° ESE
ERS-1 Rocket 4.2 19:48:48 24° ENE 19:49:31 25° ENE 19:53:34 10° N
STARLINK-1239 3.6 19:45:34 10° WSW 19:49:35 79° NNW 19:51:30 30° ENE
Cosmos 1758 3.7 19:45:37 10° SSW 19:49:41 66° WNW 19:53:47 10° N
STARLINK-1231 3.6 19:46:45 10° W 19:49:48 51° NNW 19:50:39 37° NNE
STARLINK-1232 3.6 19:47:40 10° W 19:50:43 50° NNW 19:51:31 38° NNE
STARLINK-1217 3.6 19:48:07 10° W 19:51:10 50° NNW 19:51:58 38° NNE
STARLINK-1208 3.6 19:48:32 10° W 19:51:36 50° NNW 19:52:25 38° NNE
STARLINK-1229 3.6 19:49:01 10° W 19:52:04 50° NNW 19:52:48 39° NNE
IRIDIUM 104 4.3 19:47:03 10° N 19:52:18 89° W 19:56:26 17° S
BREEZE-M DEB (TANK) 3.3 19:46:07 10° WNW 19:52:29 87° NNE 19:53:10 55° E
STARLINK-1271 3.6 19:49:29 10° W 19:52:32 49° NNW 19:53:17 39° NNE
STARLINK-1270 3.6 19:49:56 10° W 19:52:59 49° NNW 19:53:42 39° NNE
BREEZE M DEB (TANK) 4.3 19:44:33 10° SW 19:53:20 33° SSE 19:53:49 33° SE
STARLINK-1154 3.6 19:50:23 10° W 19:53:25 49° NNW 19:54:07 40° NNE
CZ-2C R/B 4.4 19:48:51 10° SSW 19:53:28 35° W 19:57:57 10° NNW
STARLINK-1240 3.6 19:50:11 10° WSW 19:54:12 75° NNW 19:55:56 33° ENE
STARLINK-1197 3.7 19:51:17 10° W 19:54:20 49° NNW 19:54:59 40° NNE
STARLINK-1130 (DARKSAT) 3.5 19:50:18 10° WNW 19:54:28 88° NNE 19:55:22 54° ESE
STARLINK-1189 3.7 19:51:45 10° W 19:54:47 48° NNW 19:55:26 40° NNE
Resurs 01 Rocket 1.5 19:53:05 33° SSE 19:55:01 87° E 19:59:28 10° NNW
Cosmos 2369 Rocket 2.2 19:49:46 10° NNW 19:55:30 72° ENE 19:57:50 37° SE
STARLINK-1187 3.8 19:52:37 10° W 19:55:39 46° NNW 19:56:20 38° NNE
STARLINK-1188 3.7 19:52:39 10° W 19:55:41 48° NNW 19:56:17 41° NNE
SPOT 5 4.2 19:56:05 20° ENE 19:56:05 20° ENE 19:59:06 10° NNE
STARLINK-1198 3.7 19:52:53 10° W 19:55:55 48° NNW 19:56:31 41° NNE
STARLINK-1235 3.9 19:53:21 10° W 19:56:23 43° NNW 19:57:05 36° NNE
STARLINK-1199 3.7 19:54:35 10° W 19:57:39 47° NNW 19:58:13 41° NNE
STARLINK-1191 3.7 19:55:03 10° W 19:58:06 47° NNW 19:58:39 41° NNE
STARLINK-67 4.1 19:55:48 10° WNW 19:58:04 31° NNW 19:58:04 31° NNW
STARLINK-1210 3.7 19:55:30 10° W 19:58:33 47° NNW 19:59:04 42° NNE
STARLINK-1216 3.7 19:54:49 10° WSW 19:58:51 72° NNW 20:00:23 36° NE
STARLINK-1221 3.7 19:55:57 10° W 19:59:01 47° NNW 19:59:33 42° NNE
Cosmos 2263 4.3 19:53:37 10° NNW 19:59:12 58° ENE 20:01:00 40° ESE
STARLINK-1084 3.5 19:55:17 10° WNW 19:59:27 88° SSW 20:00:09 60° ESE
STARLINK-1219 3.7 19:56:25 10° W 19:59:27 47° NNW 19:59:58 42° NNE
STARLINK-1222 3.7 19:56:51 10° W 19:59:54 46° NNW 20:00:22 42° NNE
STARLINK-1211 3.7 19:57:19 10° W 20:00:21 46° NNW 20:00:48 42° NNE
STARLINK-1214 3.7 19:57:47 10° W 20:00:49 46° NNW 20:01:15 42° NNE
STARLINK-1245 3.7 19:58:16 10° W 20:01:18 45° NNW 20:01:40 43° N
IRIDIUM 114 4.5 19:56:14 10° N 20:01:27 75° W 20:05:35 16° S
STARLINK-1238 3.7 19:58:41 10° W 20:01:44 46° NNW 20:02:07 43° N
STARLINK-1205 3.7 19:59:38 10° W 20:02:39 45° NNW 20:02:59 43° N
STARLINK-1204 3.7 20:00:04 10° W 20:03:05 45° NNW 20:03:23 43° N
STARLINK-1237 3.7 19:59:30 10° WSW 20:03:31 69° NNW 20:04:52 39° NE
STARLINK-1098 3.5 20:00:15 10° WNW 20:04:24 83° SSW 20:04:55 67° SE
SPOT 3 Rocket 4.4 20:00:43 10° S 20:05:41 48° W 20:10:44 10° NNW
Cosmos 1726 2.1 20:06:29 67° ENE 20:06:29 67° ENE 20:09:57 10° NNE
Landsat 7 4.2 20:06:34 43° E 20:06:59 45° ENE 20:11:32 10° N
Meteor 1-21 Rocket 4.4 20:02:23 10° NNW 20:07:57 70° W 20:11:31 22° S
STARLINK-1202 3.8 20:04:08 10° WSW 20:08:08 66° NNW 20:09:18 42° NE
Nadezhda 1 Rocket 4.1 20:06:17 33° SSE 20:09:04 56° E 20:15:19 10° NNE
STARLINK-1123 3.5 20:05:15 10° WNW 20:09:24 78° SSW 20:09:44 72° SSE
Cosmos 2228 3.3 20:11:03 48° ENE 20:11:03 48° ENE 20:14:37 10° NNE
MOS 1 Rocket 3.6 20:07:17 10° N 20:12:29 81° WNW 20:17:52 10° SSW
STARLINK-1246 3.9 20:09:15 10° WSW 20:13:16 63° NNW 20:14:18 45° NE
SAR-Lupe-2 4.4 20:09:53 10° NNE 20:12:21 41° NNE 20:12:21 41° NNE
STARLINK-1097 3.5 20:10:13 10° WNW 20:14:22 73° SSW 20:14:29 73° S
Cosmos 292 Rocket 4.0 20:12:58 10° NNW 20:17:44 65° WSW 20:19:07 43° S
Cosmos 1943 3.4 20:19:28 49° E 20:19:28 49° E 20:24:35 10° NE
STARLINK-1099 3.6 20:15:13 10° WNW 20:19:17 69° SW 20:19:17 69° SW
Cosmos 1943 Rocket 2.5 20:15:15 10° NW 20:20:42 60° WSW 20:22:51 35° S
STARLINK-1224 4.0 20:18:09 10° W 20:22:09 58° NNW 20:22:45 51° NNE
Cosmos 2058 Rocket 4.4 20:24:09 29° NE 20:24:09 29° NE 20:26:42 10° NNE
Cosmos 2074 Rocket 4.2 20:16:48 10° NNW 20:23:02 71° W 20:26:46 26° S
NOSS 3-4 (A) 4.2 20:16:45 10° NW 20:23:24 51° NE 20:25:57 37° E
NOSS 3-4 (C) 4.2 20:16:51 10° NW 20:23:29 51° NE 20:26:03 36° E
STARLINK-1104 3.8 20:20:13 10° WNW 20:24:04 62° SW 20:24:04 62° SW
STARLINK-1225 4.0 20:22:53 10° W 20:26:52 56° NNW 20:27:17 53° N
Cosmos 1328 3.9 20:23:11 10° N 20:26:45 68° N 20:26:45 68° N
STARLINK-1203 4.1 20:24:36 10° W 20:28:28 53° NNW 20:28:44 51° N
STARLINK-1144 4.0 20:25:11 10° WNW 20:28:50 56° WSW 20:28:50 56° WSW
Cosmos 1437 4.5 20:26:42 10° NNW 20:28:31 30° NW 20:28:31 30° NW
STARLINK-1230 4.1 20:27:33 10° W 20:31:31 54° NNW 20:31:44 53° N
Cosmos 1953 3.5 20:29:29 21° SW 20:31:40 41° WNW 20:35:28 10° N
Meteor 2-10 4.3 20:28:33 20° SSW 20:32:20 72° WNW 20:37:53 10° N
SPOT 1/Viking Rocket 3.4 20:32:06 66° E 20:32:27 68° ENE 20:37:39 10° N
NOSS 3-3 (A) 3.8 20:27:35 10° SSW 20:33:23 69° SE 20:39:59 10° NE
NOSS 3-3 (C) 3.8 20:27:41 10° SSW 20:33:30 68° SE 20:40:05 10° NE
Spot 2 Rocket 3.5 20:33:07 59° S 20:34:04 79° WSW 20:39:13 10° NNW
STARLINK-1103 4.2 20:30:10 10° WNW 20:33:37 50° WSW 20:33:37 50° WSW
Cosmos 2084 Rocket 4.1 20:30:55 10° NW 20:35:13 48° SW 20:35:19 48° SW
SL-16 R/B 3.7 20:30:42 10° WSW 20:35:55 36° NW 20:41:09 10° NNE
STARLINK-1243 4.2 20:32:17 10° W 20:36:15 52° NNW 20:36:16 52° NNW
Cosmos 1610 Rocket 4.4 20:30:51 10° N 20:37:07 83° W 20:39:03 47° S
STARLINK-1101 4.5 20:35:10 10° WNW 20:38:25 44° WSW 20:38:25 44° WSW
STARLINK-1236 4.3 20:37:00 10° W 20:40:45 50° NNW 20:40:45 50° NNW
IGS 5A 3.9 20:42:14 59° NNW 20:42:14 59° NNW 20:45:39 10° NNW
Aureole 2 Rocket 4.2 20:40:10 10° NW 20:42:44 29° W 20:42:44 29° W
Terra 2.7 20:49:36 39° NE 20:49:36 39° NE 20:53:08 10° N
CARTOSAT-1 4.4 20:50:52 43° NNE 20:50:52 43° NNE 20:53:56 10° N
Cosmos 2341 Rocket 3.9 20:46:56 10° N 20:53:18 74° E 20:53:51 70° ESE
Cosmos 1703 4.5 20:50:00 10° NNW 20:53:09 41° WNW 20:53:09 41° WNW
Cosmos 1726 Rocket 4.1 20:55:08 56° NW 20:55:08 56° NW 20:58:55 10° N
ATLAS 2AS CENTAUR R/B 2.8 20:48:39 10° NW 20:56:23 74° NE 20:57:42 60° ESE
Cosmos 1603 3.8 20:53:26 21° SW 20:57:15 73° WNW 21:02:54 10° NNE
USA 234 3.6 20:51:33 10° NE 20:58:00 63° NNW 21:04:26 10° WSW
APEX 4.4 20:58:53 10° NNW 21:05:54 74° ENE 21:06:05 73° ENE
CZ-2C R/B 4.3 21:03:07 10° N 21:07:38 31° WNW 21:12:07 10° SW
Aureole 1 Rocket 4.2 21:07:14 64° SSE 21:08:22 76° ESE 21:15:00 10° NNE
COSMOS 2455 3.3 21:05:22 10° NNW 21:11:09 50° NE 21:11:09 50° NE
Cosmos 2218 Rocket 4.0 21:15:50 10° N 21:21:25 69° NE 21:21:25 69° NE
Cosmos 1656 Rocket 4.2 21:17:26 10° NW 21:22:37 52° W 21:22:37 52° W
ERS-1 Rocket 3.8 21:28:47 47° WNW 21:28:47 47° WNW 21:32:56 10° NNW
Resurs 01 Rocket 4.4 21:30:52 10° WSW 21:32:09 11° W 21:33:27 10° WNW
Cosmos 2181 Rocket 4.1 21:33:10 72° N 21:33:10 72° N 21:38:42 10° N
SPOT 5 4.2 21:35:19 33° NW 21:35:19 33° NW 21:37:58 10° NNW
Cosmos 2369 Rocket 4.1 21:34:52 10° NW 21:38:55 20° W 21:39:39 20° WSW
CZ-4C R/B 4.2 21:57:49 10° NW 22:03:32 29° NNE 22:06:33 23° ENE
Mayak 1.5 22:06:09 10° N 22:06:55 15° N 22:06:55 15° N
NOSS 3-4 (A) 4.4 22:07:43 10° NW 22:13:24 47° W 22:13:24 47° W
NOSS 3-4 (C) 4.4 22:07:49 10° NW 22:13:29 48° W 22:13:29 48° W
Terra 4.1 22:28:29 19° WNW 22:28:29 19° WNW 22:30:25 10° NW
Cosmos 1697 Rocket 4.1 22:22:25 10° NNW 22:26:03 32° NNE 22:26:03 32° NNE
USA 234 4.2 22:34:22 10° ENE 22:40:26 42° N 22:46:30 10° WNW
ATLAS 2AS CENTAUR R/B 4.2 22:40:25 10° NW 22:45:08 28° W 22:45:08 28° W
Cosmos 1980 Rocket 3.8 22:47:31 10° NNW 22:50:54 29° NNE 22:50:54 29° NNE
Cosmos 2082 Rocket 4.5 23:15:19 16° NE 23:15:19 16° NE 23:16:34 10° NE
SL-16 R/B 4.4 23:21:37 20° ENE 23:22:19 20° NE 23:26:41 10° N
ATLAS 5 CENTAUR R/B 4.3 23:39:11 18° NNE 23:39:11 18° NNE 23:40:48 10° NNE
Cosmos 1833 Rocket 4.4 23:45:09 28° NNE 23:45:09 28° NNE 23:47:41 10° NNE
